Regional Weather Roundup
Issued by NWS Nashville, TN

Home | Current Version | Previous Version | Text Only | Print | Product List | Glossary On
Versions: 1 2 3 4 5 6 7 8 9 10 11 12 13 14 15 16 17 18 19 20 21 22 23 24 25 26 27
000
ASUS44 KOHX 151910
RWROHX
MIDDLE TENNESSEE HOURLY WEATHER ROUNDUP
NATIONAL WEATHER SERVICE NASHVILLE TN
100 PM CST FRI DEC 15 2017

NOTE: "FAIR" INDICATES FEW OR NO CLOUDS BELOW 12,000 FEET WITH
NO SIGNIFICANT WEATHER AND/OR OBSTRUCTIONS TO VISIBILITY.

* THESE REPORTS ARE NOT UNDER NWS QUALITY CONTROL AND MAY NOT
  REPORT WEATHER SUCH AS PRECIPITATION AND FOG.


TNZ005>011-023>034-057-059-062>066-078-080-152000
...NORTHERN MIDDLE TENNESSEE...

CITY           SKY/WX    TMP DP  RH WIND       PRES   REMARKS
CLARKSVILLE    SUNNY     40  19  43 SW7       30.11F
CROSSVILLE     CLOUDY    30  19  63 W10       30.07S WCI  21
GALLATIN       MOSUNNY   39  21  48 VRB5G14   30.16F
DICKSON          N/A     38  20  48 S6        30.11F WCI  33
NASHVILLE      MOSUNNY   40  21  46 NW9       30.15F WCI  34
PORTLAND       SUNNY     36  23  60 SW8       30.10F WCI  29
SMYRNA         MOSUNNY   38  22  52 NW6       30.16F WCI  33
SPARTA         PTSUNNY   36  21  55 SW10      30.11F WCI  28
SPRINGFIELD    SUNNY     37  21  52 W6        30.10F WCI  33
WEST NASHVILLE SUNNY     37  21  52 VRB5G15   30.12F WCI  34
$$
TNZ056-058-060-061-075>077-079-093>097-152000
...SOUTHERN MIDDLE TENNESSEE...

CITY           SKY/WX    TMP DP  RH WIND       PRES   REMARKS
COLUMBIA       SUNNY     39  23  52 CALM      30.13F
FAYETTEVILLE   MOSUNNY   34  23  64 VRB5      30.14F WCI  30
MCMINNVILLE    PTSUNNY   36  21  55 W7G13     30.12F WCI  30
MURFREESBORO   MOSUNNY   36  21  55 CALM      30.16F
PULASKI        SUNNY     37  25  60 NW6       30.15F WCI  33
SHELBYVILLE    MOSUNNY   37  23  56 SW7       30.14F WCI  32
TULLAHOMA      PTSUNNY   34  21  60 NW6G12    30.12F WCI  29
WINCHESTER     CLOUDY    32  21  64 W7        30.14F WCI  26
$$


...KEY TO REMARKS...
VSB - VISIBILITY IN MILES
WCI - WIND CHILL INDEX
HX  - HEAT INDEX





USA.gov is the U.S. government's official web portal to all federal, state and local government web resources and services.